Weather History for Poughkeepsie, NY

Change the Weather History Date:

Thursday, February 7, 2013

  Actual Average Record
Temperature  
Mean Temperature 25 °F 27 °F  
Max Temperature 34 °F 38 °F 53 °F (2005)
Min Temperature 15 °F 17 °F -10 °F (1966)
Degree Days  
Heating Degree Days 40 38  
Month to date heating degree days 272 268  
Since 1 July heating degree days 3423 3820  
Cooling Degree Days 0 0  
Month to date cooling degree days 0 0  
Year to date cooling degree days 0 0  
Moisture  
Dew Point 8 °F    
Average Humidity 54    
Maximum Humidity 80    
Minimum Humidity 28    
Precipitation  
Precipitation 0.00 in 0.09 in 1.50 in (1951)
Month to date precipitation 0.01 0.65  
Year to date precipitation 2.06 3.73  
Sea Level Pressure  
Sea Level Pressure 30.43 in    
Wind  
Wind Speed 2 mph (ENE)    
Max Wind Speed 8 mph    
Max Gust Speed 12 mph    
Visibility 10 miles    
Events      
T = Trace of Precipitation, MM = Missing Value Source: NWS Daily Summary

Daily Weather History Graph

Daily Weather History Graph

Search for Another Location

Airport:

Trip Planner

Search our weather history database for the weather conditions in past years. The results will help you decide how hot, cold, wet, or windy it might be!

Date:

Astronomy

Feb. 07, 2013 Rise Set
Actual Time 7:00 AM EST 5:19 PM EST
Civil Twilight 6:31 AM EST 5:48 PM EST
Nautical Twilight 5:58 AM EST 6:21 PM EST
Astronomical Twilight 5:26 AM EST 6:53 PM EST
Moon 4:39 AM EST (2/7) 2:39 PM EST (2/7)
Length of Visible Light 11h 16m
Length of Day
10h 18m
Waning Crescent, 9% of the Moon is Illuminated
Feb 7
Waning Crescent
Feb 10
New
Feb 17
First Quarter
Feb 25
Full
Mar 4
Last Quarter

Hourly Weather History & Observations

Time (EST) Temp. Windchill Dew Point Humidity Pressure Visibility Wind Dir Wind Speed Gust Speed Precip Events Conditions
12:53 AM 24.1 °F 16.0 °F 1.9 °F 38% 30.35 in 10.0 mi NNE 6.9 mph - N/A   Clear
1:53 AM 21.9 °F 17.2 °F 3.0 °F 44% 30.37 in 10.0 mi East 3.5 mph - N/A   Clear
2:53 AM 18.0 °F 11.1 °F 7.0 °F 62% 30.39 in 10.0 mi NNE 4.6 mph - N/A   Clear
3:53 AM 19.0 °F - 8.1 °F 62% 30.40 in 10.0 mi Calm Calm - N/A   Clear
4:53 AM 17.1 °F - 8.1 °F 68% 30.42 in 10.0 mi Calm Calm - N/A   Clear
5:53 AM 15.1 °F - 8.1 °F 74% 30.44 in 10.0 mi Calm Calm - N/A   Clear
6:53 AM 17.1 °F - 10.0 °F 74% 30.46 in 10.0 mi Calm Calm - N/A   Clear
7:53 AM 18.0 °F - 12.0 °F 78% 30.49 in 10.0 mi Calm Calm - N/A   Overcast
8:53 AM 21.0 °F - 10.9 °F 65% 30.51 in 10.0 mi Calm Calm - N/A   Clear
9:53 AM 24.1 °F - 7.0 °F 48% 30.52 in 10.0 mi Calm Calm - N/A   Mostly Cloudy
10:53 AM 26.1 °F 18.4 °F 5.0 °F 41% 30.52 in 10.0 mi NNW 6.9 mph - N/A   Clear
11:53 AM 28.0 °F 22.8 °F 3.9 °F 36% 30.49 in 10.0 mi NNW 4.6 mph - N/A   Clear
12:53 PM 30.9 °F 24.3 °F 5.0 °F 33% 30.46 in 10.0 mi North 6.9 mph - N/A   Clear
1:53 PM 32.0 °F - 3.9 °F 31% 30.44 in 10.0 mi Calm Calm - N/A   Mostly Cloudy
2:53 PM 33.1 °F 27.7 °F 3.9 °F 29% 30.43 in 10.0 mi ESE 5.8 mph - N/A   Mostly Cloudy
3:53 PM 32.0 °F 28.7 °F 3.9 °F 31% 30.41 in 10.0 mi SSW 3.5 mph - N/A   Clear
4:53 PM 30.9 °F 25.2 °F 5.0 °F 33% 30.40 in 10.0 mi SE 5.8 mph - N/A   Overcast
5:53 PM 30.9 °F 27.5 °F 7.0 °F 37% 30.41 in 10.0 mi SE 3.5 mph - N/A   Overcast
6:53 PM 30.0 °F - 7.0 °F 38% 30.41 in 10.0 mi Calm Calm - N/A   Partly Cloudy
7:53 PM 27.0 °F - 9.0 °F 47% 30.42 in 10.0 mi Calm Calm - N/A   Partly Cloudy
8:53 PM 28.0 °F 24.2 °F 8.1 °F 43% 30.42 in 10.0 mi SSE 3.5 mph - N/A   Scattered Clouds
9:53 PM 25.0 °F - 12.9 °F 60% 30.41 in 10.0 mi Calm Calm - N/A   Partly Cloudy
10:53 PM 27.0 °F - 15.1 °F 61% 30.39 in 10.0 mi Calm Calm - N/A   Overcast
11:53 PM 28.0 °F 24.2 °F 17.1 °F 63% 30.36 in 10.0 mi NNE 3.5 mph - N/A   Overcast